EW5670 Weather Reports


Display with metric or nautical units.
time (UTC)temp
F
wind
direction
speed
MPH
gust
MPH
rain 1hr
in
rain 24hr
in
rain mn
in
humidity
%
barometer
mb
20260502162837 63 247 1.0 3.0 0.01 0.01 0.01 71 1013.4
20260502161838 64 278 0.0 3.0 0.00 0.00 0.00 68 1013.4
20260502151832 67 50 1.0 4.0 0.00 0.00 0.00 61 1013.8
20260502150832 67 20 1.0 4.0 0.00 0.00 0.00 60 1014.1
20260502122831 66 257 1.0 5.0 0.00 0.00 0.00 61 1016.3
20260502121831 65 161 3.0 6.0 0.00 0.00 0.00 62 1016.6
20260502120832 64 248 2.0 7.0 0.00 0.00 0.00 62 1016.6
20260502115831 64 222 2.0 5.0 0.00 0.00 0.00 62 1016.7
20260502114832 65 249 2.0 6.0 0.00 0.00 0.00 60 1016.9
20260502113832 65 257 2.0 7.0 0.00 0.00 0.00 62 1017.1
20260502112831 64 265 2.0 6.0 0.00 0.00 0.00 63 1017.1
20260502111831 63 167 2.0 8.0 0.00 0.00 0.00 64 1017.3
20260502110832 62 210 3.0 7.0 0.00 0.00 0.00 65 1017.4
20260502105831 63 308 1.0 6.0 0.00 0.00 0.00 66 1017.4
20260502104831 62 241 3.0 8.0 0.00 0.00 0.00 67 1017.5
20260502103831 62 240 2.0 6.0 0.00 0.00 0.00 67 1017.6
20260502102830 61 226 3.0 8.0 0.00 0.00 0.00 67 1018.0
20260502101832 61 237 3.0 7.0 0.00 0.00 0.00 67 1017.9
20260502100831 61 215 2.0 8.0 0.00 0.00 0.00 69 1018.0
20260502090831 59 111 0.0 3.0 0.00 0.00 0.00 73 1018.5
20260502065813 49 119 0.0 2.0 0.00 0.00 0.00 92 1018.9
20260502064813 49 157 1.0 3.0 0.00 0.00 0.00 92 1019.1
20260502063812 48 131 2.0 3.0 0.00 0.00 0.00 92 1019.1
20260502062813 48 146 0.0 3.0 0.00 0.00 0.00 92 1019.0
20260502060813 47 144 1.0 2.0 0.00 0.00 0.00 92 1018.9
20260502055813 47 103 1.0 3.0 0.00 0.00 0.00 92 1018.9
20260502054813 47 147 0.0 3.0 0.00 0.00 0.00 92 1019.0
20260502051813 47 155 1.0 3.0 0.00 0.00 0.00 91 1018.9
20260502045813 47 153 0.0 2.0 0.00 0.00 0.00 91 1019.0
20260502044810 47 216 0.0 1.0 0.00 0.00 0.00 91 1018.9
20260502043811 47 231 0.0 2.0 0.00 0.00 0.00 91 1019.0
20260502042809 47 141 0.0 2.0 0.00 0.00 0.00 90 1019.1
20260502041809 47 172 0.0 2.0 0.00 0.00 0.00 90 1019.1
20260502040809 48 169 0.0 1.0 0.00 0.00 0.00 90 1019.2
20260502035808 48 204 1.0 2.0 0.00 0.00 0.00 90 1019.2
20260502034808 48 172 0.0 2.0 0.00 0.00 0.00 90 1019.3
20260502033814 48 180 0.0 2.0 0.00 0.00 0.00 90 1019.4
20260502032811 49 170 0.0 2.0 0.00 0.00 0.00 89 1019.3
20260502031811 49 158 0.0 2.0 0.00 0.00 0.00 89 1019.3
20260502030807 49 119 0.0 2.0 0.00 0.00 0.00 89 1019.2
20260502025809 49 112 0.0 2.0 0.00 0.00 0.00 89 1019.3
20260502024807 49 162 0.0 0.0 0.00 0.00 0.00 89 1019.3
20260502023807 49 169 0.0 2.0 0.00 0.00 0.00 88 1019.4
20260502022807 50 173 0.0 2.0 0.00 0.00 0.00 88 1019.5
20260502020807 50 163 0.0 2.0 0.00 0.00 0.00 88 1019.5
20260502015808 50 151 1.0 3.0 0.00 0.00 0.00 88 1019.6
20260502014809 50 163 0.0 2.0 0.00 0.00 0.00 87 1019.5
20260502013807 51 195 1.0 3.0 0.00 0.00 0.00 87 1019.6
20260502012807 51 146 1.0 4.0 0.00 0.00 0.00 87 1019.8
20260502011808 51 131 1.0 3.0 0.00 0.00 0.00 87 1019.8
20260502010807 51 154 2.0 5.0 0.00 0.00 0.00 86 1019.9
20260502005808 51 159 2.0 4.0 0.00 0.00 0.00 86 1020.0
20260502003803 52 163 1.0 4.0 0.00 0.00 0.00 85 1020.2
20260502002803 52 164 1.0 3.0 0.00 0.00 0.00 84 1020.2
20260502001804 53 137 1.0 4.0 0.00 0.00 0.00 84 1020.2
20260502000803 53 201 1.0 4.0 0.00 0.00 0.00 84 1020.4
20260501235803 53 146 1.0 3.0 0.00 0.00 0.00 84 1020.3
20260501234804 53 220 2.0 4.0 0.00 0.00 0.00 83 1020.2
20260501232803 53 191 2.0 6.0 0.00 0.00 0.00 82 1020.3
20260501231805 54 202 2.0 5.0 0.00 0.00 0.00 82 1020.3
20260501230803 54 200 2.0 5.0 0.00 0.00 0.00 81 1020.3
20260501225804 54 219 1.0 3.0 0.00 0.00 0.00 81 1020.3
20260501223803 55 179 3.0 7.0 0.00 0.00 0.00 80 1020.3
20260501222803 56 194 2.0 7.0 0.00 0.00 0.00 80 1020.4
20260501221804 56 206 3.0 6.0 0.00 0.00 0.00 81 1020.4
20260501220803 57 201 2.0 6.0 0.00 0.00 0.00 82 1020.4
20260501215803 57 195 2.0 4.0 0.00 0.00 0.00 82 1020.3
20260501212804 58 219 1.0 4.0 0.00 0.00 0.00 83 1020.3
20260501211804 58 184 1.0 3.0 0.00 0.00 0.00 84 1020.3
20260501210803 58 212 1.0 4.0 0.00 0.00 0.00 84 1020.2
20260501205803 58 253 1.0 3.0 0.00 0.00 0.00 84 1020.2
20260501204804 58 211 1.0 3.0 0.00 0.00 0.00 84 1020.2
20260501203804 58 234 1.0 3.0 0.00 0.00 0.00 84 1020.2
20260501202803 58 252 2.0 4.0 0.00 0.00 0.00 83 1020.4
20260501200803 59 251 1.0 3.0 0.00 0.00 0.00 83 1020.3
20260501195803 59 252 2.0 5.0 0.00 0.00 0.00 83 1020.2
20260501192803 60 232 2.0 5.0 0.00 0.00 0.00 81 1020.2
20260501191804 60 226 2.0 5.0 0.00 0.00 0.00 80 1020.2
20260501190804 60 205 2.0 5.0 0.00 0.00 0.00 79 1020.3
20260501184809 61 238 2.0 5.0 0.00 0.00 0.00 78 1020.4
20260501183803 61 200 2.0 5.0 0.00 0.00 0.00 79 1020.3
20260501182804 61 203 3.0 7.0 0.00 0.00 0.00 79 1020.2
20260501181817 61 207 5.0 9.0 0.00 0.00 0.00 78 1020.0
20260501180803 61 219 4.0 8.0 0.00 0.00 0.00 77 1020.1
20260501174806 62 149 3.0 7.0 0.00 0.00 0.00 77 1020.0
20260501173804 62 210 4.0 9.0 0.00 0.00 0.00 77 1020.0